Regional Weather Roundup
Issued by NWS

Home | Current Version | Previous Version | Text Only | Print | Product List | Glossary Off
Versions: 1 2 3 4 5 6 7 8 9 10 11 12 13 14 15 16 17 18 19 20 21 22 23 24 25 26 27 28 29 30 31 32 33 34 35 36 37 38 39 40 41 42 43 44 45 46 47 48 49 50

000
ASUS43 KLOT 281410
RWRIL

ILLINOIS REGIONAL WEATHER ROUNDUP
NATIONAL WEATHER SERVICE CHICAGO/ROMEOVILLE IL
800 AM CST WED JAN 28 2015

NOTE: "FAIR" INDICATES FEW OR NO CLOUDS BELOW 12,000 FEET WITH NO
SIGNIFICANT WEATHER AND/OR OBSTRUCTIONS TO VISIBILITY.

* THESE STATIONS ARE NOT UNDER NWS QUALITY CONTROL. THEY ALSO MAY NOT
  REPORT WEATHER SUCH AS PRECIPITATION OR FOG.

ILZ001-002-007-009-015-016-024-281500-
NORTHWEST ILLINOIS

CITY           SKY/WX    TMP DP  RH WIND       PRES   REMARKS
MOLINE         PTCLDY    25  21  85 SE10      30.19F FOG     WCI  15
STERLING*      PTCLDY    25  21  86 SE7       30.23S WCI  17
SAVANNA*       CLOUDY    29  25  84 S9        30.22R WCI  21
$$

ILZ003-004-008-010-011-017-018-281500-
NORTH CENTRAL ILLINOIS

CITY           SKY/WX    TMP DP  RH WIND       PRES   REMARKS
ROCKFORD       MOCLDY    22  16  78 SE12      30.25F WCI  10
FREEPORT*      CLOUDY    25  22  87 SE9       30.23F WCI  15
ROCHELLE*      PTCLDY    20  17  87 SE9       30.24F WCI   9
DE KALB*       CLEAR     20  17  87 SE10      30.25F WCI   8
PERU*          CLEAR     24  19  81 SE10      30.26F WCI  14
$$

ILZ005-006-012>014-019>023-281500-
NORTHEAST ILLINOIS

CITY           SKY/WX    TMP DP  RH WIND       PRES   REMARKS
CHICAGO-OHARE  MOCLDY    22  16  78 S7        30.28S WCI  13
CHICAGO-MIDWAY MOCLDY    24  16  71 S8        30.29S WCI  15
AURORA         CLEAR     22  16  78 SE7       30.27S WCI  13
LANSING*       PTCLDY    20  15  81 SE5       30.31R WCI  13
JOLIET*        FAIR      22  18  83 SE6       30.29F WCI  14
WAUKEGAN       PTCLDY    24  19  81 S9        30.26S WCI  14
DUPAGE AIRPORT PTCLDY    22  16  78 S7        30.26F WCI  13
KANKAKEE*      PTCLDY    21  17  86 SE6       30.31F WCI  13
WHEELING       PTCLDY    22  17  81 S5        30.29F WCI  16
MORRIS*        PTCLDY    22  19  89 SE5       30.28S WCI  16
ROMEOVILLE*    PTCLDY    22  18  82 S9        30.29R WCI  12
NORTHERLY ISL    N/A     24  14  65 S9          N/A  WCI  15
$$

LMZ740>746-281500-
SOUTHERN LAKE MICHIGAN

STATION/POSITION SKY/WX   TEMP    WIND        PRES    VSBY  WAVE
                          AIR SEA DIR/SP/G                  HT/PER
                          (F)     (DEG/KT/KT) (MB)    (MI)  (FT/S)
WAUKEGAN HARBOR            25     210/ 13/ 15   N/A
HARRISON CRIB              25     170/ 15/ 17   N/A
BURNHAM HARBOR             25     160/  4/  9   N/A
CALUMET HARBOR             22     160/  7/ 10   N/A
MICHIGAN CITY              22     140/  7/ 10   N/A
$$

ILZ025>027-034>036-040-047-049-050-058-095>099-281500-
WEST-CENTRAL ILLINOIS

CITY           SKY/WX    TMP DP  RH WIND       PRES   REMARKS
QUINCY         CLEAR     28  25  88 SE13      30.14F FOG     WCI  17
GALESBURG*     CLEAR     26  19  77 SE9       30.19F WCI  16
MACOMB*        CLEAR     27  24  90 SE14      30.21F WCI  15
JACKSONVILLE*  CLEAR     30  26  84 SE14      30.21F WCI  19
PITTSFIELD*    PTCLDY    29  27  92 SE14      30.19F FOG     WCI  19
$$

ILZ028>032-037-038-041>044-048-051>054-059>061-281500-
CENTRAL ILLINOIS

CITY           SKY/WX    TMP DP  RH WIND       PRES   REMARKS
PONTIAC        CLEAR     25  20  80 SE9       30.28F WCI  15
BLOOMINGTON    CLEAR     25  19  77 S14       30.27R WCI  13
DECATUR        CLEAR     25  18  74 SE10      30.28R WCI  15
PEORIA         CLEAR     26  18  71 SE9       30.25S WCI  17
LACON*         CLEAR     24  18  78 SE9G17    30.25F WCI  14
LINCOLN*       CLEAR     26  21  79 SE9       30.28R WCI  17
SPRINGFIELD    CLEAR     27  21  78 SE13      30.26R WCI  16
TAYLORVILLE    CLEAR     27  23  86 SE10      30.28R WCI  17
$$

ILZ033-039-045-046-055>057-062-063-281500-
EAST-CENTRAL ILLINOIS

CITY           SKY/WX    TMP DP  RH WIND       PRES   REMARKS
CHAMPAIGN      PTCLDY    23  17  78 SE10      30.28F WCI  12
DANVILLE*      CLEAR     21  16  81 S6        30.28F WCI  14
RANTOUL*       CLEAR     24  20  83 SE8       30.29F WCI  15
MATTOON        CLEAR     24  17  74 SE13      30.28F WCI  12
PARIS*         PTCLDY    23  19  86 N6        30.32F WCI  16
$$

ILZ079-100>102-281500-
SOUTHWEST ILLINOIS

CITY           SKY/WX    TMP DP  RH WIND       PRES   REMARKS
ALTON          CLEAR     28  27  93 SE14      30.25F FOG     WCI  17
BELLEVILLE     CLEAR     28  28  99 SE9       30.26F WCI  20
CAHOKIA*       CLEAR     30  27  88 SE10      30.25F FOG     WCI  21
SPARTA*        CLEAR     28  26  95 SE7       30.29S WCI  20
$$

ILZ064>066-069>071-074>076-080>082-084>086-088>090-092>094-281500-
SOUTH-CENTRAL ILLINOIS

CITY           SKY/WX    TMP DP  RH WIND       PRES   REMARKS
CARBONDALE     CLEAR     27  25  92 SE3       30.30S
CAIRO*         CLEAR     31  30  94 E3        30.31S FOG
EFFINGHAM*     CLEAR     27  19  72 E8        30.32R WCI  19
MARION         CLEAR     28  27  93 SE6       30.31R WCI  22
MT. VERNON     CLEAR     27  21  80 S5        30.32R WCI  21
CENTRALIA*     CLEAR     28  25  86 SE5       30.30R WCI  23
SALEM*         CLEAR     29  25  85 CALM      30.30R
METROPOLIS*    CLEAR     30  30 100 CALM      30.31R FOG
$$

ILZ067-068-072-073-078-083-087-091-281500-
SOUTHEAST ILLINOIS

CITY           SKY/WX    TMP DP  RH WIND       PRES   REMARKS
LAWRENCEVILLE  CLEAR     26  20  77 SE8       30.34S HAZE    WCI  18
FLORA*         CLEAR     27  24  89 SE8       30.32S WCI  18
FAIRFIELD*     CLEAR     28  25  88 E7        30.31R WCI  21
HARRISBURG*    CLEAR     30  29  96 SE8       30.33R FOG     WCI  23
ROBINSON*      CLEAR     24  20  85 SE7       30.35S WCI  16
CARMI*         CLEAR     30  29  96 E5        30.32S WCI  25
$$

ABBREVIATIONS USED IN REMARKS
   TC - TEMPERATURE IN CELSIUS
  WCI - WIND CHILL INDEX
   HX - HEAT INDEX
  VSB - VISIBILITY
$$



USA.gov is the U.S. government's official web portal to all federal, state and local government web resources and services.